Location: ????? ????
(37.9717°N, 23.4051°E)
Time: 04:03:09
(UTC+00:00)

Genesis I - Pass Details

Date: 18 April 2024
Orbit: 437 x 467 km, 64.5° (Epoch: 23 May)

Event Time Altitude Azimuth Distance (km) Brightness Sun altitude
Rises 19:25:57 0° 329° (NNW) 2,520 7.8 -25.3°
Reaches altitude 10° 19:28:05 10° 330° (NNW) 1,643 6.6 -25.7°
Enters shadow 19:30:23 36° 334° (NNW) 763 4.4 -26.0°
